Time,TemperatureF,DewpointF,PressureIn,WindDirection,WindDirectionDegrees,WindSpeedMPH,WindSpeedGustMPH,Humidity,HourlyPrecipIn,Conditions,Clouds,dailyrainin,SolarRadiationWatts/m^2,SoftwareType,DateUTC
2013-01-03 00:02:00,5.0,-8.0,-100.00,West,265,7.0,13.0,53,0.00,,,0.01,0.000000,,2013-01-03 07:02:00,
2013-01-03 00:12:00,5.0,-8.0,-100.00,West,265,7.0,13.0,53,0.00,,,0.01,0.000000,,2013-01-03 07:12:00,
2013-01-03 00:22:00,5.0,-8.0,-100.00,West,265,7.0,13.0,53,0.00,,,0.01,0.000000,,2013-01-03 07:22:00,
2013-01-03 00:32:00,5.0,-8.0,-100.00,West,265,7.0,13.0,53,0.00,,,0.01,0.000000,,2013-01-03 07:32:00,
2013-01-03 00:53:00,3.0,-9.0,-100.00,West,279,3.0,13.0,57,0.00,,,0.01,0.000000,,2013-01-03 07:53:00,
2013-01-03 01:02:00,3.0,-9.0,-100.00,West,279,3.0,13.0,57,0.00,,,0.01,0.000000,,2013-01-03 08:02:00,
2013-01-03 01:12:00,3.0,-9.0,-100.00,West,279,3.0,13.0,57,0.00,,,0.01,0.000000,,2013-01-03 08:12:00,
2013-01-03 01:22:00,3.0,-9.0,-100.00,West,279,3.0,13.0,57,0.00,,,0.01,0.000000,,2013-01-03 08:22:00,
2013-01-03 01:32:00,3.0,-9.0,-100.00,West,279,3.0,13.0,57,0.00,,,0.01,0.000000,,2013-01-03 08:32:00,
2013-01-03 01:53:00,4.0,-10.0,-100.00,WSW,247,5.0,8.0,50,0.00,,,0.01,0.000000,,2013-01-03 08:53:00,
2013-01-03 02:02:00,4.0,-10.0,-100.00,WSW,247,5.0,8.0,50,0.00,,,0.01,0.000000,,2013-01-03 09:02:00,
2013-01-03 02:12:00,4.0,-10.0,-100.00,WSW,247,5.0,8.0,50,0.00,,,0.01,0.000000,,2013-01-03 09:12:00,
2013-01-03 02:22:00,4.0,-10.0,-100.00,WSW,247,5.0,8.0,50,0.00,,,0.01,0.000000,,2013-01-03 09:22:00,
2013-01-03 02:33:00,4.0,-10.0,-100.00,WSW,247,5.0,8.0,50,0.00,,,0.01,0.000000,,2013-01-03 09:33:00,
2013-01-03 02:53:00,4.0,-11.0,-100.00,SW,224,6.0,10.0,48,0.00,,,0.01,0.000000,,2013-01-03 09:53:00,
2013-01-03 03:02:00,4.0,-11.0,-100.00,SW,224,6.0,10.0,48,0.00,,,0.01,0.000000,,2013-01-03 10:02:00,
2013-01-03 03:12:00,4.0,-11.0,-100.00,SW,224,6.0,10.0,48,0.00,,,0.01,0.000000,,2013-01-03 10:12:00,
2013-01-03 03:22:00,4.0,-11.0,-100.00,SW,224,6.0,10.0,48,0.00,,,0.01,0.000000,,2013-01-03 10:22:00,
2013-01-03 03:32:00,4.0,-11.0,-100.00,SW,224,6.0,10.0,48,0.00,,,0.01,0.000000,,2013-01-03 10:32:00,
2013-01-03 03:53:00,2.0,-11.0,-100.00,WSW,255,5.0,9.0,53,0.00,,,0.01,0.000000,,2013-01-03 10:53:00,
2013-01-03 04:02:00,2.0,-11.0,-100.00,WSW,255,5.0,9.0,53,0.00,,,0.01,0.000000,,2013-01-03 11:02:00,
2013-01-03 04:12:00,2.0,-11.0,-100.00,WSW,255,5.0,9.0,53,0.00,,,0.01,0.000000,,2013-01-03 11:12:00,
2013-01-03 04:22:00,2.0,-11.0,-100.00,WSW,255,5.0,9.0,53,0.00,,,0.01,0.000000,,2013-01-03 11:22:00,
2013-01-03 04:33:00,2.0,-11.0,-100.00,WSW,255,5.0,9.0,53,0.00,,,0.01,0.000000,,2013-01-03 11:33:00,
2013-01-03 04:53:00,4.0,-13.0,-100.00,WSW,238,5.0,9.0,45,0.00,,,0.01,0.000000,,2013-01-03 11:53:00,
2013-01-03 05:03:00,4.0,-13.0,-100.00,WSW,238,5.0,9.0,45,0.00,,,0.01,0.000000,,2013-01-03 12:03:00,
2013-01-03 05:12:00,4.0,-13.0,-100.00,WSW,238,5.0,9.0,45,0.00,,,0.01,0.000000,,2013-01-03 12:12:00,
2013-01-03 05:22:00,4.0,-13.0,-100.00,WSW,238,5.0,9.0,45,0.00,,,0.01,0.000000,,2013-01-03 12:22:00,
2013-01-03 05:32:00,4.0,-13.0,-100.00,WSW,238,5.0,9.0,45,0.00,,,0.01,0.000000,,2013-01-03 12:32:00,
2013-01-03 05:53:00,5.0,-12.0,-100.00,SW,218,6.0,8.0,44,0.00,,,0.01,0.000000,,2013-01-03 12:53:00,
2013-01-03 06:02:00,5.0,-12.0,-100.00,SW,218,6.0,8.0,44,0.00,,,0.01,0.000000,,2013-01-03 13:02:00,
2013-01-03 06:13:00,5.0,-12.0,-100.00,SW,218,6.0,8.0,44,0.00,,,0.01,0.000000,,2013-01-03 13:13:00,
2013-01-03 06:22:00,5.0,-12.0,-100.00,SW,218,6.0,8.0,44,0.00,,,0.01,0.000000,,2013-01-03 13:22:00,
2013-01-03 06:33:00,5.0,-12.0,-100.00,SW,218,6.0,8.0,44,0.00,,,0.01,0.000000,,2013-01-03 13:33:00,
2013-01-03 06:53:00,4.0,-13.0,-100.00,WSW,251,5.0,9.0,45,0.00,,,0.01,0.000000,,2013-01-03 13:53:00,
2013-01-03 07:03:00,4.0,-13.0,-100.00,WSW,251,5.0,9.0,45,0.00,,,0.01,0.000000,,2013-01-03 14:03:00,
2013-01-03 07:12:00,4.0,-13.0,-100.00,WSW,251,5.0,9.0,45,0.00,,,0.01,0.000000,,2013-01-03 14:12:00,
2013-01-03 07:23:00,4.0,-13.0,-100.00,WSW,251,5.0,9.0,45,0.00,,,0.01,0.000000,,2013-01-03 14:23:00,
2013-01-03 07:33:00,4.0,-13.0,-100.00,WSW,251,5.0,9.0,45,0.00,,,0.01,0.000000,,2013-01-03 14:33:00,
2013-01-03 07:53:00,-1.0,-14.0,-100.00,West,262,2.0,8.0,54,0.00,,,0.01,2.000000,,2013-01-03 14:53:00,
2013-01-03 08:03:00,-1.0,-14.0,-100.00,West,262,2.0,8.0,54,0.00,,,0.01,2.000000,,2013-01-03 15:03:00,
2013-01-03 08:12:00,-1.0,-14.0,-100.00,West,262,2.0,8.0,54,0.00,,,0.01,2.000000,,2013-01-03 15:12:00,
2013-01-03 08:22:00,-1.0,-14.0,-100.00,West,262,2.0,8.0,54,0.00,,,0.01,2.000000,,2013-01-03 15:22:00,
2013-01-03 08:33:00,-1.0,-14.0,-100.00,West,262,2.0,8.0,54,0.00,,,0.01,2.000000,,2013-01-03 15:33:00,
2013-01-03 08:53:00,0.0,-13.0,-100.00,WSW,246,2.0,7.0,54,0.00,,,0.01,13.000000,,2013-01-03 15:53:00,
2013-01-03 09:03:00,0.0,-13.0,-100.00,WSW,246,2.0,7.0,54,0.00,,,0.01,13.000000,,2013-01-03 16:03:00,
2013-01-03 09:12:00,0.0,-13.0,-100.00,WSW,246,2.0,7.0,54,0.00,,,0.01,13.000000,,2013-01-03 16:12:00,
2013-01-03 09:22:00,0.0,-13.0,-100.00,WSW,246,2.0,7.0,54,0.00,,,0.01,13.000000,,2013-01-03 16:22:00,
2013-01-03 09:33:00,0.0,-13.0,-100.00,WSW,246,2.0,7.0,54,0.00,,,0.01,13.000000,,2013-01-03 16:33:00,
2013-01-03 09:53:00,8.0,-11.0,-100.00,West,267,2.0,4.0,41,0.00,,,0.01,173.000000,,2013-01-03 16:53:00,
2013-01-03 10:03:00,8.0,-11.0,-100.00,West,267,2.0,4.0,41,0.00,,,0.01,173.000000,,2013-01-03 17:03:00,
2013-01-03 10:12:00,8.0,-11.0,-100.00,West,267,2.0,4.0,41,0.00,,,0.01,173.000000,,2013-01-03 17:12:00,
2013-01-03 10:23:00,8.0,-11.0,-100.00,West,267,2.0,4.0,41,0.00,,,0.01,173.000000,,2013-01-03 17:23:00,
2013-01-03 10:33:00,8.0,-11.0,-100.00,West,267,2.0,4.0,41,0.00,,,0.01,173.000000,,2013-01-03 17:33:00,
2013-01-03 10:53:00,18.0,-15.0,-100.00,SW,233,3.0,9.0,21,0.00,,,0.01,422.000000,,2013-01-03 17:53:00,
2013-01-03 11:03:00,18.0,-15.0,-100.00,SW,233,3.0,9.0,21,0.00,,,0.01,422.000000,,2013-01-03 18:03:00,
2013-01-03 11:13:00,18.0,-15.0,-100.00,SW,233,3.0,9.0,21,0.00,,,0.01,422.000000,,2013-01-03 18:13:00,
2013-01-03 11:22:00,18.0,-15.0,-100.00,SW,233,3.0,9.0,21,0.00,,,0.01,422.000000,,2013-01-03 18:22:00,
2013-01-03 11:33:00,18.0,-15.0,-100.00,SW,233,3.0,9.0,21,0.00,,,0.01,422.000000,,2013-01-03 18:33:00,
2013-01-03 11:53:00,20.0,-17.0,-100.00,NNW,335,5.0,9.0,18,0.00,,,0.00,520.000000,,2013-01-03 18:53:00,
2013-01-03 12:03:00,20.0,-17.0,-100.00,NNW,335,5.0,9.0,18,0.00,,,0.00,520.000000,,2013-01-03 19:03:00,
2013-01-03 12:12:00,20.0,-17.0,-100.00,NNW,335,5.0,9.0,18,0.00,,,0.00,520.000000,,2013-01-03 19:12:00,
2013-01-03 12:57:00,24.0,-12.0,-100.00,West,278,4.0,7.0,19,0.00,,,0.00,558.000000,,2013-01-03 19:57:00,
2013-01-03 13:03:00,24.0,-12.0,-100.00,West,278,4.0,7.0,19,0.00,,,0.00,558.000000,,2013-01-03 20:03:00,
2013-01-03 13:12:00,24.0,-12.0,-100.00,West,278,4.0,7.0,19,0.00,,,0.00,558.000000,,2013-01-03 20:12:00,
2013-01-03 13:22:00,24.0,-12.0,-100.00,West,278,4.0,7.0,19,0.00,,,0.00,558.000000,,2013-01-03 20:22:00,
2013-01-03 13:33:00,24.0,-12.0,-100.00,West,278,4.0,7.0,19,0.00,,,0.00,558.000000,,2013-01-03 20:33:00,
2013-01-03 13:34:00,25.0,-17.0,-100.00,North,351,3.0,6.0,14,0.00,,,0.00,533.000000,,2013-01-03 20:34:00,
2013-01-03 13:53:00,25.0,-17.0,-100.00,North,351,3.0,6.0,14,0.00,,,0.00,533.000000,,2013-01-03 20:53:00,
2013-01-03 14:02:00,25.0,-17.0,-100.00,North,351,3.0,6.0,14,0.00,,,0.00,533.000000,,2013-01-03 21:02:00,
2013-01-03 14:12:00,25.0,-17.0,-100.00,North,351,3.0,6.0,14,0.00,,,0.00,533.000000,,2013-01-03 21:12:00,
2013-01-03 14:22:00,25.0,-17.0,-100.00,North,351,3.0,6.0,14,0.00,,,0.00,533.000000,,2013-01-03 21:22:00,
2013-01-03 14:53:00,27.0,-10.0,-100.00,West,272,4.0,6.0,19,0.01,,,0.01,448.000000,,2013-01-03 21:53:00,
2013-01-03 15:03:00,27.0,-10.0,-100.00,West,272,4.0,6.0,19,0.01,,,0.01,448.000000,,2013-01-03 22:03:00,
2013-01-03 15:12:00,27.0,-10.0,-100.00,West,272,4.0,6.0,19,0.01,,,0.01,448.000000,,2013-01-03 22:12:00,
2013-01-03 15:22:00,27.0,-10.0,-100.00,West,272,4.0,6.0,19,0.01,,,0.01,448.000000,,2013-01-03 22:22:00,
2013-01-03 15:33:00,27.0,-10.0,-100.00,West,272,4.0,6.0,19,0.01,,,0.01,448.000000,,2013-01-03 22:33:00,
2013-01-03 15:53:00,27.0,-14.0,-100.00,WNW,288,5.0,8.0,15,0.00,,,0.01,310.000000,,2013-01-03 22:53:00,
2013-01-03 16:03:00,27.0,-14.0,-100.00,WNW,288,5.0,8.0,15,0.00,,,0.01,310.000000,,2013-01-03 23:03:00,
2013-01-03 16:12:00,27.0,-14.0,-100.00,WNW,288,5.0,8.0,15,0.00,,,0.01,310.000000,,2013-01-03 23:12:00,
2013-01-03 16:22:00,27.0,-14.0,-100.00,WNW,288,5.0,8.0,15,0.00,,,0.01,310.000000,,2013-01-03 23:22:00,
2013-01-03 16:32:00,27.0,-14.0,-100.00,WNW,288,5.0,8.0,15,0.00,,,0.01,310.000000,,2013-01-03 23:32:00,
2013-01-03 16:53:00,21.0,-22.0,-100.00,SSW,210,4.0,6.0,13,0.00,,,0.01,93.000000,,2013-01-03 23:53:00,
2013-01-03 17:03:00,21.0,-22.0,-100.00,SSW,210,4.0,6.0,13,0.00,,,0.01,93.000000,,2013-01-04 00:03:00,
2013-01-03 17:12:00,21.0,-22.0,-100.00,SSW,210,4.0,6.0,13,0.00,,,0.01,93.000000,,2013-01-04 00:12:00,
2013-01-03 17:22:00,21.0,-22.0,-100.00,SSW,210,4.0,6.0,13,0.00,,,0.01,93.000000,,2013-01-04 00:22:00,
2013-01-03 17:32:00,21.0,-22.0,-100.00,SSW,210,4.0,6.0,13,0.00,,,0.01,93.000000,,2013-01-04 00:32:00,
2013-01-03 17:53:00,20.0,-21.0,-100.00,SSW,210,4.0,6.0,14,0.00,,,0.01,4.000000,,2013-01-04 00:53:00,
2013-01-03 18:02:00,20.0,-21.0,-100.00,SSW,210,4.0,6.0,14,0.00,,,0.01,4.000000,,2013-01-04 01:02:00,
2013-01-03 18:12:00,20.0,-21.0,-100.00,SSW,210,4.0,6.0,14,0.00,,,0.01,4.000000,,2013-01-04 01:12:00,
2013-01-03 18:22:00,20.0,-21.0,-100.00,SSW,210,4.0,6.0,14,0.00,,,0.01,4.000000,,2013-01-04 01:22:00,
2013-01-03 18:32:00,20.0,-21.0,-100.00,SSW,210,4.0,6.0,14,0.00,,,0.01,4.000000,,2013-01-04 01:32:00,
2013-01-03 18:53:00,20.0,-17.0,-100.00,SW,233,5.0,9.0,18,0.00,,,0.01,0.000000,,2013-01-04 01:53:00,
2013-01-03 19:02:00,20.0,-17.0,-100.00,SW,233,5.0,9.0,18,0.00,,,0.01,0.000000,,2013-01-04 02:02:00,
2013-01-03 19:12:00,20.0,-17.0,-100.00,SW,233,5.0,9.0,18,0.00,,,0.01,0.000000,,2013-01-04 02:12:00,
2013-01-03 19:22:00,20.0,-17.0,-100.00,SW,233,5.0,9.0,18,0.00,,,0.01,0.000000,,2013-01-04 02:22:00,
2013-01-03 19:32:00,20.0,-17.0,-100.00,SW,233,5.0,9.0,18,0.00,,,0.01,0.000000,,2013-01-04 02:32:00,
2013-01-03 19:53:00,20.0,-13.0,-100.00,SW,230,5.0,9.0,22,0.00,,,0.01,0.000000,,2013-01-04 02:53:00,
2013-01-03 20:02:00,20.0,-13.0,-100.00,SW,230,5.0,9.0,22,0.00,,,0.01,0.000000,,2013-01-04 03:02:00,
2013-01-03 20:12:00,20.0,-13.0,-100.00,SW,230,5.0,9.0,22,0.00,,,0.01,0.000000,,2013-01-04 03:12:00,
2013-01-03 20:22:00,20.0,-13.0,-100.00,SW,230,5.0,9.0,22,0.00,,,0.01,0.000000,,2013-01-04 03:22:00,
2013-01-03 20:32:00,20.0,-13.0,-100.00,SW,230,5.0,9.0,22,0.00,,,0.01,0.000000,,2013-01-04 03:32:00,
2013-01-03 20:53:00,19.0,-13.0,-100.00,WSW,240,5.0,9.0,23,0.00,,,0.01,0.000000,,2013-01-04 03:53:00,
2013-01-03 21:02:00,19.0,-13.0,-100.00,WSW,240,5.0,9.0,23,0.00,,,0.01,0.000000,,2013-01-04 04:02:00,
2013-01-03 21:12:00,19.0,-13.0,-100.00,WSW,240,5.0,9.0,23,0.00,,,0.01,0.000000,,2013-01-04 04:12:00,
2013-01-03 21:22:00,19.0,-13.0,-100.00,WSW,240,5.0,9.0,23,0.00,,,0.01,0.000000,,2013-01-04 04:22:00,
2013-01-03 21:32:00,19.0,-13.0,-100.00,WSW,240,5.0,9.0,23,0.00,,,0.01,0.000000,,2013-01-04 04:32:00,
2013-01-03 21:52:00,18.0,-13.0,-100.00,West,275,1.0,7.0,24,0.00,,,0.01,0.000000,,2013-01-04 04:52:00,
2013-01-03 22:03:00,18.0,-13.0,-100.00,West,275,1.0,7.0,24,0.00,,,0.01,0.000000,,2013-01-04 05:03:00,
2013-01-03 22:12:00,18.0,-13.0,-100.00,West,275,1.0,7.0,24,0.00,,,0.01,0.000000,,2013-01-04 05:12:00,
2013-01-03 22:22:00,18.0,-13.0,-100.00,West,275,1.0,7.0,24,0.00,,,0.01,0.000000,,2013-01-04 05:22:00,
2013-01-03 22:33:00,18.0,-13.0,-100.00,West,275,1.0,7.0,24,0.00,,,0.01,0.000000,,2013-01-04 05:33:00,
2013-01-03 22:53:00,17.0,-12.0,-100.00,WNW,282,4.0,7.0,26,0.00,,,0.01,0.000000,,2013-01-04 05:53:00,
2013-01-03 23:02:00,17.0,-12.0,-100.00,WNW,282,4.0,7.0,26,0.00,,,0.01,0.000000,,2013-01-04 06:02:00,
2013-01-03 23:12:00,17.0,-12.0,-100.00,WNW,282,4.0,7.0,26,0.00,,,0.01,0.000000,,2013-01-04 06:12:00,
2013-01-03 23:22:00,17.0,-12.0,-100.00,WNW,282,4.0,7.0,26,0.00,,,0.01,0.000000,,2013-01-04 06:22:00,
2013-01-03 23:32:00,17.0,-12.0,-100.00,WNW,282,4.0,7.0,26,0.00,,,0.01,0.000000,,2013-01-04 06:32:00,
2013-01-03 23:52:00,18.0,-11.0,-100.00,SSW,213,5.0,11.0,26,0.00,,,0.01,0.000000,,2013-01-04 06:52:00,